Location: Brzeg Dolny
(51.2709°N, 16.7199°E)
Time: 16:43:32
(UTC+01:00)

ISS - Visible Passes

Search period start: 20 November 2017 00:00
Search period end: 30 November 2017 00:00
Orbit: 402 x 407 km, 51.6° (Epoch: 21 November)

Date Brightness Start Highest point End Pass type
(mag) Time Alt. Az. Time Alt. Az. Time Alt. Az.
28 Nov -1.4 18:16:36 10° SSW 18:17:35 16° S 18:17:35 16° S visible
29 Nov -1.7 17:25:08 10° S 17:27:02 15° SE 17:27:28 14° SE visible
29 Nov -0.6 18:59:46 10° WSW 19:00:07 12° SW 19:00:07 12° SW visible
